Voltar ao catálogo

DELTA 1 DEB

AtivoSSO
NORAD 26701·DEBRIS·🇺🇸 United States

Lançado Jun 12, 1975 de Vandenberg Space Force Base

Loading…

Próximas Passagens (próximas 24 horas)

TLE

AtualizadoSource: Space-Track

Época: Sep 14, 2026, 02:49 UTC

1 26701U 75052KB  26257.11780983  .00000394  00000-0  50849-3 0  9999
2 26701  99.7469 126.2706 0259472  44.7109 105.1389 13.55467029274181

Acompanhe DELTA 1 DEB em tempo real com AllMySat

Download on the App Store